Regional Weather Roundup
Issued by NWS

Home | Current Version | Previous Version | Text Only | Print | Product List | Glossary Off
Versions: 1 2 3 4 5 6 7 8 9 10 11 12 13 14 15 16 17 18 19 20 21 22 23 24 25 26 27 28 29 30 31 32 33 34 35 36 37 38 39 40 41 42 43 44 45 46 47 48 49 50

946
ASUS43 KMKX 240700
RWRWI

WISCONSIN REGIONAL WEATHER ROUNDUP
NATIONAL WEATHER SERVICE MILWAUKEE/SULLIVAN WI
100 AM CST FRI FEB 24 2017

NOTE: "FAIR" INDICATES FEW OR NO CLOUDS BELOW 12,000 FEET WITH NO
SIGNIFICANT WEATHER AND/OR OBSTRUCTIONS TO VISIBILITY.

WIZ001-002-006>008-014>016-023>028-240800-
NORTHWEST WISCONSIN

CITY           SKY/WX    TMP DP  RH WIND       PRES   REMARKS
SUPERIOR ARPT  CLOUDY    25  15  65 N14       29.99F WCI  13
ASHLAND        CLOUDY    27  19  72 N9        29.95F WCI  18
HAYWARD        CLOUDY    27  17  66 N10       29.91F WCI  17
SIREN          CLOUDY    26  18  69 NE9G17    29.94S WCI  17
CUMBERLAND     CLOUDY    28  21  74 N10G18    29.90R WCI  19
RICE LAKE      CLOUDY    29  23  76 N13       29.90R WCI  19
CHETEK         CLOUDY    30  22  73 N8        29.88R WCI  22
LADYSMITH      CLOUDY    30  24  78 NE10      29.89R WCI  21
EAU CLAIRE     NOT AVBL
MENOMONIE      CLOUDY    32  23  71 N14G20    29.88R WCI  22
NEW RICHMOND   CLOUDY    29  22  74 NE18G24   29.89S WCI  17
OSCEOLA        CLOUDY    29  21  72 N12G20    29.94S WCI  19
$$

WIZ003>005-009-010-017-018-240800-
NORTH CENTRAL WISCONSIN

CITY           SKY/WX    TMP DP  RH WIND       PRES   REMARKS
MANITOWISH WTR CLOUDY    25  25 100 N6        29.87F WCI  18
ARBOR VITAE    CLOUDY    28  25  89 N5          N/A  WCI  23
WOODRUFF       CLOUDY    28  25  89 N5          N/A  WCI  23
RHINELANDER    CLOUDY    28  22  78 NE12G18   29.86F WCI  18
EAGLE RIVER    CLOUDY    26  22  84 NE7       29.87F WCI  19
LAND O LAKES   CLOUDY    25  24  95 CALM      29.90F
PHILLIPS       CLOUDY    27  24  87 NE8G17    29.85F WCI  19
TOMAHAWK       CLOUDY    28  20  72 NE3G17    29.86F
MEDFORD        LGT SNOW  28  24  86 NE13      29.83R WCI  17
MERRILL        NOT AVBL
$$

WIZ029-030-035-036-043>047-240800-
CENTRAL WISCONSIN

CITY           SKY/WX    TMP DP  RH WIND       PRES   REMARKS
WAUSAU         LGT SNOW  31  27  85 NE10      29.80F FOG     WCI  22
MOSINEE        LGT SNOW  32  30  93 N8        29.84S WCI  25
MARSHFIELD     SNOW      30  29  96 VRB7      29.78F VSB 1/2 WCI  23
STEVENS POINT  LGT SNOW  30  27  87 NE13G23   29.81F WCI  20
WAUPACA        SNOW      33  29  86 NE7G18    29.80F VSB 1/2 WCI  26
WAUTOMA        LGT SNOW  31  29  92 NE22G28   29.73F FOG     WCI  18
WISC RAPIDS    LGT SNOW  31  30  96 NE18      29.77F VSB 3/4 WCI  19
CAMP DOUGLAS   LGT SNOW  32  32 100 NW8       29.81R VSB 1   WCI  25
$$

WIZ011>013-019>022-031-037>040-048>050-240800-
NORTHEAST WISCONSIN

CITY           SKY/WX    TMP DP  RH WIND       PRES   REMARKS
ANTIGO         CLOUDY    30  25  81 NE16      29.83F WCI  19
SHAWANO        CLOUDY    33  28  80 NE13G20   29.84F WCI  24
OCONTO         CLOUDY    32  24  71 NE8       29.88S WCI  25
STURGEON BAY   LGT RAIN  33  24  69 NE15      29.85F WCI  23
GREEN BAY      SNOW      32  30  92 NE18G24   29.83F VSB 1/2 WCI  20
MANITOWOC      LGT SNOW  34  30  86 NE13G21   29.83F VSB 3/4 WCI  25
APPLETON       SNOW      32  30  93 NE15G24   29.77F VSB 1/2 WCI  22
CLINTONVILLE   CLOUDY    32  27  80 NE10      29.83F WCI  24
OSHKOSH        LGT SNOW  32  29  88 NE17G23   29.75F FOG     WCI  21
$$

WIZ032>034-041-042-053>061-240800-
SOUTHWEST WISCONSIN

CITY           SKY/WX    TMP DP  RH WIND       PRES   REMARKS
LA CROSSE      LGT SNOW  34  33  96 N9        29.77S FOG     WCI  27
SPARTA         LGT SNOW  33  32  98 W6        29.87R WCI  27
VIROQUA        CLOUDY    33  32  99 NE13G21   29.75R WCI  23
BOSCOBEL       LGT RAIN  35  32  88 NE10G21   29.70R WCI  27
PRAIRIE DU CHI MIX PCPN  33  32  96 N9        29.70R WCI  26
PLATTEVILLE    CLOUDY    34  34 100 NE24G33   29.60F WCI  21
$$

WIZ056-057-062-063-064-067-068-240800-
SOUTH CENTRAL WISCONSIN

CITY           SKY/WX    TMP DP  RH WIND       PRES   REMARKS
REEDSBURG      DRIZZLE   32  32 100 NE18G28   29.68F WCI  20
BARABOO/DELLS  MIX PCPN  32  31  96 NE15G29   29.68F WCI  21
LONE ROCK      LGT RAIN  34  30  85 E13G23    29.69R FOG     WCI  25
MINERAL POINT  RAIN      34  34 100 NE22      29.63S WCI  22
MADISON        HVY RAIN  33  31  92 NE20      29.67F FOG     WCI  21
MIDDLETON      CLOUDY    34  34  99 NE13G25   29.71S WCI  25
WATERTOWN      TSTM      33  33 100 NE17G26   29.68F WCI  22
MONROE         TSTM      32  32 100 NE21G26   29.63F WCI  20
JANESVILLE     LGT RAIN  36  36 100 E23G35    29.63F WCI  24
$$

WIZ051-052-058>065-066-070>072-240800-
SOUTHEAST WISCONSIN

CITY           SKY/WX    TMP DP  RH WIND       PRES   REMARKS
MILWAUKEE      LGT RAIN  36  33  89 NE28G35   29.69F WCI  23
WAUKESHA       DRIZZLE   32  32 100 NE14G28   29.71F WCI  22
MILWAUKEE/TIMM DRIZZLE   32  32 100 NE20G29   29.73F WCI  20
RACINE         LGT RAIN  36  33  89 NE22G32   29.68F WCI  25
KENOSHA        LGT RAIN  36  33  89 NE29G36   29.62F WCI  23
FOND DU LAC    FLURRIES  33  29  85 NE17      29.77F WCI  22
SHEBOYGAN      SNOW      32  32 100 NE22G35   29.80S VSB 1/2 WCI  19
WEST BEND      LGT RAIN  32  32 100 NE22G28   29.75F WCI  19
JUNEAU         MIX PCPN  32  31  95 NE15G23   29.73F WCI  22
$$

LSZ147-162-240800-
LAKE SUPERIOR

STATION/POSITION TIME  TEMP    WIND        PRES    WAVE
                       AIR SEA DIR/SP/G            HT/PER
                 (UTC) (F)     (DEG/KT/KT) (MB)    (FT/S)
DEVILS ISLAND    0600   29      30/ 17/ 19 1017.1R
PORT WING        0640   28      20/ 19/ 23 1015.2F
SAXON HARBOR     0640   31      40/ 19/ 22 1014.2F
$$

LMZ867-665-643>646-240800-
LAKE MICHIGAN

STATION/POSITION TIME  TEMP    WIND        PRES    WAVE
                       AIR SEA DIR/SP/G            HT/PER
                 (UTC) (F)     (DEG/KT/KT) (MB)    (FT/S)
CHAMBERS ISLAND  0640   32      30/ 15/ 18 1011.5F
NORTHPORT PIER   0640   33      20/  9/ 13 1012.5F
SISTER BAY       0605   33      30/  6/ 10   N/A
KEWAUNEE LAKESHO 0630   33      50/ 18/ 23 1010.6S
SHEBOYGAN LAKESH 0500   33      20/ 28/ 31 1010.4F
PORT WASHINGTON  0630   35      50/ 23/ 30 1009.5S
MILWAUKEE LAKESH 0630   35      40/ 27/ 31   N/A
KENOSHA   LAKESH 0600   36      30/ 28/ 34 1006.1
$$

TC  - TEMPERATURE IN CELSIUS
VSB - VISIBILITY IN STATUTE MILES
WCI - WIND CHILL INDEX
HX  - HEAT INDEX





USA.gov is the U.S. government's official web portal to all federal, state and local government web resources and services.